This is the latest recevied weather packets stored in our database for station/object N5SRF. If no packets are shown the sender has not sent any weather packets the latest 10 day(s).
| Time | Temp. | Humidity | Pressure | Rain* | Wind** | Luminosity | Snow |
|---|---|---|---|---|---|---|---|
| 1778090078 | 26.11° C | 93% | 1015.2 hPa | 1.27 mm | - | 123 W/m² | - |
| 1778089768 | 26.67° C | 92% | 1015.2 hPa | 0 mm | - | 58 W/m² | - |
| 1778089466 | 26.67° C | 91% | 1015.3 hPa | 0 mm | - | 50 W/m² | - |
| 1778089158 | 26.67° C | 90% | 1015.4 hPa | 0 mm | - | 37 W/m² | - |
| 1778088854 | 26.67° C | 89% | 1015.4 hPa | 0 mm | - | 42 W/m² | - |
| 1778088552 | 26.67° C | 89% | 1015.4 hPa | 0 mm | - | 44 W/m² | - |
| 1778088248 | 27.22° C | 88% | 1015.3 hPa | 0 mm | - | 46 W/m² | - |
| 1778087946 | 27.22° C | 87% | 1015.5 hPa | 0 mm | - | 48 W/m² | - |
| 1778087642 | 27.22° C | 86% | 1015.7 hPa | 0 mm | - | 70 W/m² | - |
| 1778087340 | 27.78° C | 86% | 1015.7 hPa | 0 mm | - | 43 W/m² | - |
| 1778087036 | 27.78° C | 85% | 1015.4 hPa | 0 mm | - | 80 W/m² | - |
| 1778086730 | 27.78° C | 85% | 1015.7 hPa | 0 mm | - | 88 W/m² | - |
| 1778086427 | 27.78° C | 85% | 1015.4 hPa | 0 mm | - | 111 W/m² | - |
| 1778086124 | 28.33° C | 84% | 1015.5 hPa | 0 mm | - | 125 W/m² | - |
| 1778085820 | 28.33° C | 84% | 1015.3 hPa | 0 mm | - | 146 W/m² | - |
| 1778085518 | 28.33° C | 84% | 1015.4 hPa | 0 mm | - | 247 W/m² | - |
| 1778085212 | 28.33° C | 84% | 1015 hPa | 0 mm | - | 252 W/m² | - |
| 1778084908 | 27.78° C | 84% | 1015.1 hPa | 0 mm | - | 274 W/m² | - |
| 1778084606 | 28.33° C | 83% | 1014.9 hPa | 0 mm | - | 263 W/m² | - |
| 1778084303 | 28.33° C | 84% | 1014.8 hPa | 0 mm | - | 300 W/m² | - |
| 1778084000 | 28.33° C | 85% | 1014.9 hPa | 0 mm | - | 301 W/m² | - |
| 1778083692 | 27.78° C | 86% | 1014.8 hPa | 0 mm | - | 524 W/m² | - |
| 1778083389 | 27.22° C | 87% | 1014.6 hPa | 0 mm | - | 344 W/m² | - |
| 1778083088 | 27.22° C | 87% | 1014.8 hPa | 0 mm | - | 295 W/m² | - |
| 1778082783 | 27.22° C | 88% | 1014.9 hPa | 0 mm | - | 266 W/m² | - |
* Rain latest hour (hover to see other rain measurements)
** Current wind speed in m/s (hover to see current wind gust speed)